Flag for U.S.A. Weather past 2 weeks in Inglewood, California, U.S.A.

Now
68 °F

Clear.


Feels Like: 68 °F
Forecast: 64 / 80 °F
Wind: No wind

Location: Hawthorne Municipal Airport

Current Time: Jun 30, 2015 at 2:13:27 AM

Latest Report: Jun 30, 2015 at 12:53 AM


Visibility: 10 mi

Pressure: 29.89 "Hg

Humidity: 76%

Dew point: 60 °F

Location of InglewoodLocation

Historic Weather in Inglewood — Graph

°F

Inglewood temperature yesterday

Maximum temperature yesterday: 84 °F (at 11:53 AM)
Minimum temperature yesterday: 69 °F (at 2:53 AM)
Average temperature yesterday: 74 °F

Past Weeks' High & Low Weather Summary

 TemperatureHumidityPressure
High84 °F (Jun 29, 11:53 AM)96% (Jun 19, 2:53 AM)30.04 "Hg (Jun 19, 2:53 AM)
Low60 °F (Jun 19, 2:53 AM)47% (Jun 19, 5:53 PM)29.79 "Hg (Jun 20, 2:53 AM)
Average69 °F72%29.90 "Hg
* Reported Jun 15 12:53 AM — Jun 30 12:53 AM, Inglewood, Weather by CustomWeather, © 2015

Note: Actual official high and low records may vary slightly from our data, if they occured in-between our weather recording intervals... More about our weather records

Advertising

Inglewood weather history for previous 24 hours

 ConditionsComfort  
Time TempWeatherWind HumidityBarometerVisibility
12:53 AM
Tue, Jun 30
68 °FClear.No wind76%29.89 "Hg10 mi
11:53 PM
Mon, Jun 29
69 °FClear.3 mph70%29.90 "Hg10 mi
10:53 PM69 °FClear.3 mph68%29.91 "Hg10 mi
9:53 PM70 °FClear.5 mph64%29.90 "Hg10 mi
8:53 PM72 °FSunny.6 mph57%29.88 "Hg10 mi
7:53 PM72 °FSunny.7 mph64%29.87 "Hg10 mi
6:53 PM75 °FSunny.7 mph58%29.85 "Hg10 mi
5:53 PM75 °FSunny.7 mph60%29.86 "Hg10 mi
4:53 PM75 °FSunny.8 mph60%29.87 "Hg10 mi
3:53 PM75 °FSunny.12 mph64%29.87 "Hg10 mi
2:53 PM76 °FSunny.10 mph60%29.88 "Hg10 mi
1:53 PM79 °FSunny.13 mph56%29.88 "Hg10 mi
12:53 PM82 °FSunny.10 mph53%29.89 "Hg10 mi
11:53 AM84 °FSunny.9 mph48%29.90 "Hg10 mi
10:53 AM81 °FSunny.7 mph53%29.90 "Hg10 mi
9:53 AM78 °FSunny.No wind56%29.89 "Hg10 mi
8:53 AM74 °FSunny.No wind64%29.90 "Hg10 mi
7:53 AM72 °FSunny.No wind71%29.90 "Hg10 mi
6:53 AM70 °FSunny.3 mph73%29.89 "Hg10 mi
5:53 AM69 °FClear.3 mph76%29.88 "Hg10 mi
4:53 AM69 °FClear.No wind76%29.85 "Hg10 mi
3:53 AM69 °FClear.No wind73%29.86 "Hg10 mi
2:53 AM69 °FClear.No wind73%29.87 "Hg10 mi
Weather by CustomWeather, © 2015

See weather overviewHow to use our weather pages